• Em Portugal
  • Lista de países
  • Para 7 dias
  • Temperatura da água
  • Mapas de satélite
  • Mapa do tempo
  • Widgets de tempo
  • user-avatar
    Iniciar Sessão

    Previsão horária em Lalitpur

    Hoje, 23 Junho, Sábado

    Tempo Temperatura Precipitação Vento Pressão Humidade
    00:00 +23°C° 0 mm 1 m/s 647 mmHg 80%
    01:00 +23°C° 0,8 mm 1 m/s 647 mmHg 80%
    02:00 +23°C° 0,8 mm 1 m/s 647 mmHg 79%
    03:00 +23°C° 0,8 mm 1 m/s 647 mmHg 78%
    04:00 +23°C° 0,4 mm 1 m/s 647 mmHg 77%
    05:00 +23°C° 0,4 mm 1 m/s 647 mmHg 76%
    06:00 +23°C° 0 mm 1 m/s 648 mmHg 81%
    07:00 +24°C° 0,4 mm 1 m/s 648 mmHg 76%
    08:00 +25°C° 0,4 mm 1 m/s 648 mmHg 71%
    09:00 +26°C° 0,4 mm 1 m/s 648 mmHg 66%
    10:00 +28°C° 0 mm 2 m/s 648 mmHg 61%
    11:00 +29°C° 0 mm 2 m/s 648 mmHg 57%
    12:00 +31°C° 0 mm 2 m/s 649 mmHg 50%
    13:00 +31°C° 0,1 mm 2 m/s 648 mmHg 49%
    14:00 +32°C° 0,1 mm 2 m/s 648 mmHg 49%
    15:00 +32°C° 0,1 mm 2 m/s 648 mmHg 48%
    16:00 +31°C° 0,7 mm 2 m/s 647 mmHg 54%
    17:00 +30°C° 0,7 mm 2 m/s 647 mmHg 59%
    18:00 +29°C° 0,7 mm 2 m/s 647 mmHg 65%
    19:00 +27°C° 1,3 mm 1 m/s 647 mmHg 71%
    20:00 +26°C° 1,3 mm 1 m/s 646 mmHg 77%
    21:00 +23°C° 1,3 mm 0 m/s 646 mmHg 83%
    22:00 +24°C° 1 mm 1 m/s 646 mmHg 83%
    23:00 +24°C° 1 mm 1 m/s 646 mmHg 83%

    Amanhã, 24 Junho, Domingo

    Tempo Temperatura Precipitação Vento Pressão Humidade
    00:00 +24°C° 1 mm 1 m/s 646 mmHg 83%
    01:00 +24°C° 0,7 mm 1 m/s 646 mmHg 83%
    02:00 +23°C° 0,7 mm 1 m/s 646 mmHg 83%
    03:00 +23°C° 0,7 mm 1 m/s 645 mmHg 82%
    04:00 +23°C° 0,7 mm 1 m/s 645 mmHg 81%
    05:00 +23°C° 0,7 mm 1 m/s 646 mmHg 80%
    06:00 +23°C° 0,7 mm 1 m/s 646 mmHg 79%
    07:00 +25°C° 0,4 mm 1 m/s 646 mmHg 74%
    08:00 +26°C° 0,4 mm 1 m/s 647 mmHg 70%
    09:00 +27°C° 0,4 mm 1 m/s 647 mmHg 65%
    10:00 +28°C° 0,3 mm 2 m/s 647 mmHg 64%
    11:00 +29°C° 0,3 mm 2 m/s 647 mmHg 62%
    12:00 +29°C° 0,3 mm 2 m/s 647 mmHg 61%
    13:00 +30°C° 0,8 mm 2 m/s 647 mmHg 60%
    14:00 +30°C° 0,8 mm 2 m/s 646 mmHg 59%
    15:00 +30°C° 0,8 mm 2 m/s 646 mmHg 59%
    16:00 +30°C° 1,8 mm 2 m/s 646 mmHg 63%
    17:00 +29°C° 1,8 mm 2 m/s 645 mmHg 68%
    18:00 +28°C° 1,8 mm 1 m/s 645 mmHg 73%
    19:00 +27°C° 1,5 mm 1 m/s 645 mmHg 76%
    20:00 +26°C° 1,5 mm 1 m/s 645 mmHg 80%
    21:00 +25°C° 1,5 mm 1 m/s 645 mmHg 83%
    22:00 +24°C° 1,1 mm 1 m/s 645 mmHg 83%
    23:00 +24°C° 1,1 mm 1 m/s 645 mmHg 82%

    Depois de amanhã, 25 Junho, Segunda-feira

    Tempo Temperatura Precipitação Vento Pressão Humidade
    00:00 +24°C° 1,1 mm 1 m/s 646 mmHg 82%
    01:00 +24°C° 0,6 mm 1 m/s 645 mmHg 82%
    02:00 +23°C° 0,6 mm 1 m/s 645 mmHg 81%
    03:00 +23°C° 0,6 mm 1 m/s 645 mmHg 81%
    04:00 +23°C° 1,2 mm 1 m/s 645 mmHg 82%
    05:00 +23°C° 1,2 mm 1 m/s 645 mmHg 82%
    06:00 +23°C° 1,2 mm 1 m/s 645 mmHg 83%
    07:00 +24°C° 1,1 mm 1 m/s 645 mmHg 80%
    08:00 +25°C° 1,1 mm 1 m/s 646 mmHg 77%
    09:00 +26°C° 1,1 mm 2 m/s 646 mmHg 74%
    10:00 +27°C° 1 mm 2 m/s 646 mmHg 72%
    11:00 +28°C° 1 mm 2 m/s 646 mmHg 70%
    12:00 +28°C° 1 mm 2 m/s 646 mmHg 68%
    13:00 +29°C° 1 mm 2 m/s 645 mmHg 67%
    14:00 +29°C° 1 mm 2 m/s 645 mmHg 66%
    15:00 +29°C° 1 mm 2 m/s 644 mmHg 64%
    16:00 +28°C° 1,3 mm 2 m/s 644 mmHg 69%
    17:00 +27°C° 1,3 mm 2 m/s 644 mmHg 73%
    18:00 +27°C° 1,3 mm 2 m/s 644 mmHg 77%
    19:00 +26°C° 0,7 mm 2 m/s 644 mmHg 79%
    20:00 +25°C° 0,7 mm 1 m/s 644 mmHg 82%
    21:00 +24°C° 0,7 mm 1 m/s 644 mmHg 84%
    22:00 +24°C° 0,4 mm 1 m/s 645 mmHg 84%
    23:00 +24°C° 0,4 mm 1 m/s 645 mmHg 84%

    26 Junho, Terça-feira

    Tempo Temperatura Precipitação Vento Pressão Humidade
    00:00 +22°C° 0,4 mm 0 m/s 645 mmHg 84%
    01:00 +23°C° 0,9 mm 1 m/s 645 mmHg 85%
    02:00 +23°C° 0,9 mm 1 m/s 645 mmHg 85%
    03:00 +23°C° 0,9 mm 1 m/s 644 mmHg 86%
    04:00 +23°C° 1 mm 1 m/s 644 mmHg 87%
    05:00 +23°C° 1 mm 1 m/s 644 mmHg 88%
    06:00 +23°C° 1 mm 1 m/s 645 mmHg 89%
    07:00 +23°C° 1,6 mm 1 m/s 645 mmHg 86%
    08:00 +24°C° 1,6 mm 1 m/s 646 mmHg 82%
    09:00 +25°C° 1,6 mm 1 m/s 646 mmHg 79%
    10:00 +26°C° 1,4 mm 1 m/s 646 mmHg 76%
    11:00 +27°C° 1,4 mm 2 m/s 647 mmHg 73%
    12:00 +27°C° 1,4 mm 2 m/s 647 mmHg 71%
    13:00 +27°C° 1,1 mm 2 m/s 646 mmHg 71%
    14:00 +28°C° 1,1 mm 2 m/s 646 mmHg 72%
    15:00 +28°C° 1,1 mm 2 m/s 645 mmHg 72%
    16:00 +27°C° 1,1 mm 2 m/s 645 mmHg 74%
    17:00 +27°C° 1,1 mm 1 m/s 645 mmHg 76%
    18:00 +27°C° 1,1 mm 1 m/s 645 mmHg 78%
    19:00 +26°C° 1,2 mm 1 m/s 645 mmHg 81%
    20:00 +25°C° 1,2 mm 1 m/s 646 mmHg 84%
    21:00 +24°C° 1,2 mm 1 m/s 646 mmHg 87%
    22:00 +24°C° 0,8 mm 1 m/s 646 mmHg 87%
    23:00 +24°C° 0,8 mm 1 m/s 646 mmHg 86%

    27 Junho, Quarta-feira

    Tempo Temperatura Precipitação Vento Pressão Humidade
    00:00 +24°C° 0,8 mm 1 m/s 646 mmHg 86%
    01:00 +24°C° 1 mm 1 m/s 646 mmHg 86%
    02:00 +23°C° 1 mm 1 m/s 646 mmHg 86%
    03:00 +23°C° 1 mm 1 m/s 645 mmHg 85%
    04:00 +23°C° 2,1 mm 1 m/s 646 mmHg 86%
    05:00 +23°C° 2,1 mm 1 m/s 646 mmHg 88%
    06:00 +23°C° 2,1 mm 1 m/s 646 mmHg 89%
    07:00 +24°C° 1,8 mm 1 m/s 647 mmHg 85%
    08:00 +25°C° 1,8 mm 1 m/s 647 mmHg 82%
    09:00 +25°C° 1,8 mm 1 m/s 648 mmHg 78%
    10:00 +27°C° 0,7 mm 2 m/s 648 mmHg 73%
    11:00 +28°C° 0,7 mm 2 m/s 648 mmHg 68%
    12:00 +29°C° 0,7 mm 2 m/s 648 mmHg 63%
    13:00 +29°C° 1,1 mm 2 m/s 648 mmHg 66%
    14:00 +29°C° 1,1 mm 2 m/s 647 mmHg 68%
    15:00 +28°C° 1,1 mm 2 m/s 647 mmHg 71%
    16:00 +28°C° 1,4 mm 2 m/s 647 mmHg 74%
    17:00 +27°C° 1,4 mm 2 m/s 647 mmHg 77%
    18:00 +27°C° 1,4 mm 2 m/s 647 mmHg 80%
    19:00 +26°C° 0,9 mm 1 m/s 647 mmHg 83%
    20:00 +25°C° 0,9 mm 1 m/s 647 mmHg 86%
    21:00 +24°C° 0,9 mm 1 m/s 647 mmHg 90%
    22:00 +24°C° 0,3 mm 1 m/s 647 mmHg 89%
    23:00 +24°C° 0,3 mm 1 m/s 647 mmHg 88%

    28 Junho, Quinta-feira

    Tempo Temperatura Precipitação Vento Pressão Humidade
    00:00 +22°C° 0,3 mm 0 m/s 647 mmHg 88%
    01:00 +22°C° 0,4 mm 0 m/s 647 mmHg 88%
    02:00 +21°C° 0,4 mm 0 m/s 647 mmHg 87%
    03:00 +21°C° 0,4 mm 0 m/s 647 mmHg 87%
    04:00 +21°C° 0,5 mm 0 m/s 647 mmHg 87%
    05:00 +21°C° 0,5 mm 0 m/s 647 mmHg 87%
    06:00 +21°C° 0,5 mm 0 m/s 647 mmHg 87%
    07:00 +24°C° 0,4 mm 1 m/s 647 mmHg 82%
    08:00 +26°C° 0,4 mm 1 m/s 648 mmHg 76%
    09:00 +27°C° 0,4 mm 1 m/s 648 mmHg 71%
    10:00 +28°C° 0,6 mm 2 m/s 648 mmHg 68%
    11:00 +29°C° 0,6 mm 2 m/s 648 mmHg 65%
    12:00 +30°C° 0,6 mm 2 m/s 648 mmHg 61%
    13:00 +30°C° 1,4 mm 2 m/s 647 mmHg 63%
    14:00 +30°C° 1,4 mm 3 m/s 647 mmHg 65%
    15:00 +30°C° 1,4 mm 3 m/s 646 mmHg 67%
    16:00 +29°C° 1,7 mm 2 m/s 646 mmHg 71%
    17:00 +28°C° 1,7 mm 2 m/s 646 mmHg 75%
    18:00 +27°C° 1,7 mm 2 m/s 646 mmHg 79%
    19:00 +26°C° 1,9 mm 2 m/s 646 mmHg 83%
    20:00 +25°C° 1,9 mm 1 m/s 646 mmHg 87%
    21:00 +24°C° 1,9 mm 1 m/s 647 mmHg 91%
    22:00 +24°C° 1,6 mm 1 m/s 647 mmHg 92%
    23:00 +24°C° 1,6 mm 1 m/s 647 mmHg 92%
    Mostrar mais